Other Public Products
Issued by NWS Grand Forks, ND

Home | Current Version | Previous Version | Text Only | Print | Product List | Glossary Off
Versions: 1 2 3 4 5 6 7 8 9 10 11 12 13 14 15 16 17 18 19 20 21 22 23 24 25 26 27 28 29 30 31 32 33 34 35 36 37 38 39 40 41 42 43 44 45 46 47 48 49 50

000
FPUS83 KFGF 180331
OPUFGF
PRAIRIE TO PINES WEATHER ROUNDUP
NATIONAL WEATHER SERVICE EASTERN NORTH DAKOTA/GRAND FORKS ND
900 PM CST SUN DEC 17 2017

 **SATELLITE DATA USED TO AUGMENT SKY COVER AT AUTOMATED STATIONS**
 *****  WEATHER ACROSS EASTERN NORTH DAKOTA  *****

CITY           SKY/WX    TMP DP  RH WIND       PRES   REMARKS
GRAND FORKS    MOCLDY    22  21  96 S13       29.78F WCI  10
GRND FORKS AFB CLOUDY    27  24  86 S12       29.76F WCI  17
GRND FORKS NWS   N/A     21 N/A N/A S7          N/A  WCI  13
BUXTON           N/A     21  21  99 S7          N/A  WCI  13
DEVILS LAKE    FAIR      33  24  69 SW20G26   29.70F WCI  21
FARGO          FOG       31  31 100 S12       29.84F VSB 1   WCI  22
WAHPETON ARPT    N/A     27  27 100 SE7       29.87F WCI  19
$$

 *****  WEATHER ACROSS CENTRAL AND WESTERN NORTH DAKOTA  *****

CITY           SKY/WX    TMP DP  RH WIND       PRES   REMARKS
JAMESTOWN      CLOUDY    29  23  78 S9        29.77F WCI  20
BISMARCK       MOCLDY    36  22  56 SW10      29.76F
MINOT          CLOUDY    35  23  61 SW7       29.65F
MINOT AFB      MOCLDY    33  22  65 SW8       29.64F
GARRISON         N/A     35  26  69 SW10      29.69F
WILLISTON      FAIR      32  19  58 SW7       29.69F
DICKINSON      CLOUDY    35  20  54 W14       29.71S
HETTINGER      CLOUDY    33  21  61 W12       29.79R WCI  24
$$

 *****  OTHER OBSERVATIONS NORTHEAST NORTH DAKOTA  *****

CITY           SKY/WX    TMP DP  RH WIND       PRES   REMARKS
WALHALLA       FAIR      34  23  64 S14       29.67F WCI  24
LANGDON        NOT AVBL
CAVALIER       FAIR      27  23  86 S12       29.70F WCI  16
GRAFTON        NOT AVBL
CANDO          CLOUDY    32  27  80 S14G21    29.68F WCI  22
FORT TOTTEN      N/A     32  23  69 S9        29.95S WCI  24
ROLLA          CLOUDY    30  27  86 SW13      29.63S WCI  20
RUGBY          NOT AVBL
 ***** THE ABOVE OBSERVATIONS ARE NON NWS ARE NOT QUALITY
        CONTROLLED AND MAY MIS-REPORT RAIN FOR SNOW...
$$

 *****  OTHER OBSERVATIONS SOUTHEAST NORTH DAKOTA *****

CITY           SKY/WX    TMP DP  RH WIND       PRES   REMARKS
COOPERSTOWN    CLOUDY    30  27  86 S13       29.76F WCI  20
VALLEY CITY    NOT AVBL
OAKES            N/A     27  27 100 SW9       29.84S WCI  17
GWINNER          N/A     27  27 100 SW9       29.83F WCI  17
SHEYENNE NWR     N/A     26  26 100 S6        29.95S WCI  19
BUFFALO          N/A     28  22  80 E10         N/A  WCI  18
WYNDMERE       NOT AVBL
 ***** THE ABOVE OBSERVATIONS ARE NON NWS ARE NOT QUALITY
       CONTROLLED AND MAY MIS-REPORT RAIN FOR SNOW...
$$

  *****  WEATHER ACROSS NORTHERN MINNESOTA  *****

CITY           SKY/WX    TMP DP  RH WIND       PRES   REMARKS
FLAG ISLAND    FAIR       9   7  92 S7        29.74F WCI  -3
WARROAD        FAIR      18  14  86 S5        29.76F FOG     WCI  11
ROSEAU         CLOUDY    21  18  86 S13       29.76F FOG     WCI   9
HALLOCK        LGT SNOW  21  21 100 S18       29.74F WCI   6
THF RVR FALLS  LGT SNOW  25  25 100 S14       29.82S FOG     WCI  13
HALSTAD        NOT AVBL
FOSSTON        FOG       21  19  93 S9        29.84R VSB 3/4 WCI  11
BAUDETTE       FAIR      20  19  96 S7        29.77F WCI  11
WASKISH        FAIR      25  23  93 S8        29.80F WCI  16
CROOKSTON      CLOUDY    28  28 100 S16       29.81F FOG     WCI  17
$$
  *****  WEATHER ACROSS CENTRAL AND WEST MINNESOTA  *****

CITY           SKY/WX    TMP DP  RH WIND       PRES   REMARKS
BEMIDJI        CLOUDY    24  23  97 S6        29.82F FOG     WCI  17
PARK RAPIDS    CLOUDY    26  23  88 S9        29.85F FOG     WCI  17
WADENA         CLOUDY    25  25 100 S8        29.87F FOG     WCI  16
DETROIT LAKES  CLOUDY    28  27  93 S9        29.86F FOG     WCI  20
MOORHEAD       FOG       30  28  93 S14       29.86F VSB 1/2 WCI  20
FERGUS FALLS   FAIR      25  25 100 S8        29.90F FOG     WCI  16
ELBOW LAKE     FAIR      23  23  99 E7        29.88F FOG     WCI  15
MORRIS MN      CLOUDY    28  27  93 SE9       29.89F FOG     WCI  20
STAPLES        FOG       25  25 100 S5        29.89F VSB 3/4 WCI  19
WHEATON        CLOUDY    30  27  86 S9        29.89F WCI  22
$$
  *****  WEATHER ELSEWHERE ACROSS MINNESOTA  *****

CITY           SKY/WX    TMP DP  RH WIND       PRES   REMARKS
DULUTH         CLOUDY    24  22  91 SW6       29.89F WCI  17
INTRNTL FALLS  FAIR      26  23  88 S5        29.81F FOG     WCI  20
ELY            CLOUDY    21  21 100 SW5       29.85F WCI  15
CLOQUET        CLOUDY    25  19  80 S3        29.90S
BRAINERD       CLOUDY    26  21  81 S6        29.90F WCI  19
HIBBING        CLOUDY    23  21  92 SW8       29.87F WCI  14
ALEXANDRIA     CLOUDY    26  24  92 S6        29.90F WCI  19
SAINT CLOUD    CLOUDY    24  21  88 S7        29.94F WCI  16
MINNEAPOLIS    CLOUDY    27  25  92 SE7       29.97F FOG     WCI  19
$$

  *****  WEATHER ACROSS SOUTH DAKOTA  *****

CITY           SKY/WX    TMP DP  RH WIND       PRES   REMARKS
SIOUX FALLS    CLOUDY    32  29  88 SW5       29.94F
BROOKINGS      CLOUDY    33  26  75 S8        29.92S
WATERTOWN      CLOUDY    33  31  92 S10       29.87F WCI  25
HURON          CLOUDY    37  31  78 MISG      29.89F
SISSETON         N/A     33  31  92 S10       29.86F WCI  25
ABERDEEN       CLOUDY    33  30  88 S9        29.86F
MITCHELL       CLOUDY    37  29  72 S8        29.93F
PIERRE         FAIR      32  29  88 S8        29.85F WCI  25
MOBRIDGE       FAIR      30  26  85 S6        29.80F WCI  24
RAPID CITY     FAIR      27  19  72 W7        29.83F WCI  19
$$

  *****  SOME WEATHER IN NEARBY STATES *****

CITY           SKY/WX    TMP DP  RH WIND       PRES   REMARKS
GLASGOW MT     FAIR      32  22  66 SW5       29.70S
GREAT FALLS MT FAIR      36  21  54 SW35G46   29.78F
CHEYENNE WY    FAIR      27  17  66 SW7       29.92R WCI  19
SCOTTSBLUFF NE FAIR      27  15  61 W6        29.93R WCI  20
OMAHA NE       MOCLDY    28  23  81 SE3       30.02S
DES MOINES IA  FAIR      34  29  82 W7        29.99S
DAVENPORT IA   LGT RAIN  38  37  97 W5        30.01R VSB 1
CHICAGO IL     CLOUDY    41  30  65 SW5       29.99S
EAU CLAIRE WI  CLOUDY    28  26  92 SW5       29.97F FOG     WCI  23
LA CROSSE WI   CLOUDY    32  29  88 SW6       29.98F FOG
$$

  *****  SOME NATIONAL WEATHER *****

CITY           SKY/WX    TMP DP  RH WIND       PRES   REMARKS
LA GUARDIA NY  CLOUDY    35  25  66 E7        30.24F
RALEIGH NC     CLOUDY    45  41  86 CALM      30.21S
ATLANTA GA     DRIZZLE   47  45  93 E5        30.17F
NEW ORLEANS LA MOCLDY    66  66 100 S7        30.12R FOG
OKLAHOMA CITY  FOG       40  40 100 S5        30.08R VSB 1/16
ALBUQUERQUE NM FAIR      39  30  70 SE12      30.08R
SALT LAKE CITY FAIR      30  25  81 CALM      30.25R
LOS ANGELES CA FAIR      64  22  20 N7        30.00R
BOISE ID       CLOUDY    34  23  64 S5        30.24S
SEATTLE WA     CLOUDY    49  43  80 S20G30    30.00F
$$

*** WEATHER ACROSS MANITOBA...SASKATCHEWAN AND ONTARIO ***
                ***ONTARIO***

CITY           SKY/WX    TMP DP  RH WIND       PRES   REMARKS
GERALDTON      FLURRIES  25  23  93 SW12G17   29.77F WCI  14
THUNDER BAY    CLOUDY    27  23  86 W10       29.88F WCI  17
SIOUX LOOKOUT  FLURRIES  25  23  93 S10       29.75F WCI  15
TORONTO        CLOUDY    19  14  79 NE9       30.09F WCI   9
BIG TROUT LK   CLOUDY    18  18 100 S7        29.53F WCI   8
PICKLE LAKE    NOT AVBL
DRYDEN         CLOUDY    23  23 100 SW9       29.75F WCI  13
KENORA         CLEAR     18  16  93 S10       29.72F WCI   6
$$
                *** MANITOBA***

CITY           SKY/WX    TMP DP  RH WIND       PRES   REMARKS
BRANDON        CLOUDY    30  25  80 SW14      29.57F WCI  20
DAUPHIN        MOCLDY    32  25  74 SW16G22   29.46F WCI  21
ISLAND LAKE    NOT AVBL
PILOT MOUND      N/A     28  23  80 SW21        N/A  WCI  15
THE PAS        CLOUDY    27  21  80 SW9       29.24F WCI  17
THOMPSON       LGT SNOW  23  21  93 S6        29.18F WCI  16
WINNIPEG       MOCLDY    21  18  86 S18       29.65F WCI   6
LYNN LAKE      LGT SNOW  21  19  93 S5        29.04F WCI  15
CHURCHILL      CRYSTALS   3   0  85 SE8       29.41F WCI -10
GILLAM         CLOUDY    12  10  92 SE6       29.32F WCI   3
$$
                ***SASKATCHEWAN***

CITY           SKY/WX    TMP DP  RH WIND       PRES   REMARKS
ESTEVAN        PTCLDY    27  21  80 SW10      29.61F WCI  17
KINDERSLEY     CLOUDY    27  21  80 W12       29.55S WCI  16
LLOYDMINSTER   CLEAR     32  21  64 W15G22    29.45R WCI  22
PRINCE ALBERT  CLEAR     28  21  74 W14       29.37S WCI  17
REGINA         MOCLDY    32  28  86 W10       29.55F WCI  24
YORKTON        PTCLDY    28  25  86 W15       29.45S WC


USA.gov is the U.S. government's official web portal to all federal, state and local government web resources and services.